Find Starlink 31675

NORAD ID: 59548 Int'l Des: 2024-074 Owner: SPXS Country: US Constellation: starlink operational
LEOCIRCULAR

Current View

Loading 3D Globe...

About Starlink 31675

Starlink 31675 (NORAD 59548) is a starlink constellation satellite (v2 mini) launched Apr 18, 2024 by SPXS of US. It operates in LEO, CIRCULAR orbit with a mass of 730.00 kg.

About Starlink 31675

Description loading...

Upcoming Passes

Passes for default location (London). Set your location on the main map for personalized predictions.

Altitude History

Loading altitude history...

Two-Line Element Set

1 59548U 24074Q 26169.30290942 .00001281 00000-0 56080-4 0 9996
2 59548 43.0038 135.1524 0003514 263.1885 96.8567 15.27581073121406
Epoch: Jun 18, 2026 • Age: 15 hours

Current Status

Altitude 486.6 km
Velocity 7.62 km/s
Sub-Earth Point -21.45°S, 94.44°E
Launch Date Apr 18, 2024
Age 2.1 years
Type internet

Technical Details

Classification Payload
Mass 730.00 kg
Dry Mass 700.00 kg
Total Mass 730.00 kg
Length 0.30 m
Diameter 4.10 m
Span 29.00 m
Shape Box + pan
Manufacturer SPXS
Bus Type Starlink V2M
Phase Status In Orbit
Owner/State SPXS/US

Most Searched